GFSWCAN_con_lsi_162.txt.gz
Lid_Strength_Index
2 2 2 2 1 1 0 0 -0 -0 -1 -1 -1 -0 -0 -1 -0 1 4 3 4 9 8 10 10 10 9 8 12 11 11 11 12 15 16 16 17 16 17 15 15 14 16 17 15 17 18 9 10 12 10 11 11 11
3 3 3 3 2 2 2 1 1 0 -0 -0 0 0 1 1 1 1 5 5 5 9 9 8 9 8 9 8 9 9 10 12 9 14 15 15 18 15 15 17 11 15 12 15 13 14 9 10 10 9 10 10 11 11
4 4 3 3 3 3 2 2 2 1 1 0 0 1 1 1 2 1 6 6 7 10 10 10 11 9 7 7 6 11 10 7 9 7 12 14 17 13 18 14 13 11 9 11 11 10 10 10 9 8 8 9 10 11
4 4 4 4 4 4 3 3 3 2 2 2 2 2 1 1 2 3 6 6 7 10 11 11 8 11 9 8 9 8 8 8 8 9 13 14 15 11 12 11 11 11 11 10 10 10 9 9 9 12 11 10 12 13
5 4 4 4 4 4 4 4 4 4 3 3 3 3 2 3 3 6 7 7 8 9 12 11 10 10 10 9 9 10 10 9 10 11 11 12 11 11 11 11 12 9 10 12 12 10 10 9 13 14 14 13 14 14
5 5 5 4 5 4 4 4 4 4 4 3 4 3 3 3 4 5 9 8 8 8 10 12 11 16 17 12 10 10 11 10 10 10 10 11 9 10 12 13 10 10 12 11 9 14 13 14 14 14 15 16 16 15
6 5 5 5 5 5 5 4 5 5 4 4 4 4 3 4 6 9 9 10 8 9 10 13 12 13 18 14 11 10 10 10 10 11 11 11 11 10 13 14 13 13 16 16 17 15 15 15 15 17 17 18 18 19
6 6 5 5 5 6 5 5 5 5 5 5 4 4 4 4 6 10 10 8 8 10 13 13 13 14 17 14 13 12 11 12 11 12 12 13 13 13 14 13 15 17 17 18 18 18 18 18 18 18 18 18 19 20
7 6 6 6 6 6 6 6 6 6 6 5 4 4 8 10 12 14 9 10 12 13 16 18 18 18 17 17 15 13 14 15 15 14 17 17 15 15 15 17 17 18 17 19 20 20 21 21 20 20 19 20 20 22
7 7 6 6 7 7 6 6 6 7 8 7 8 14 16 15 10 10 14 16 17 18 18 19 24 20 19 18 14 19 13 16 20 21 21 21 19 18 19 21 19 19 18 19 20 20 20 21 20 20 20 20 20 21
7 7 7 6 7 8 7 7 7 8 9 13 16 16 14 12 15 18 20 20 22 22 22 24 25 22 20 23 23 19 21 20 21 23 24 21 20 17 21 22 22 21 20 20 20 21 21 21 20 21 21 21 21 22
7 7 7 7 8 8 7 7 8 13 17 17 17 16 17 18 20 21 23 24 24 21 26 24 24 23 23 21 24 23 24 24 25 27 26 26 17 22 24 24 25 25 23 23 23 23 22 22 21 21 21 22 23 23
7 7 7 7 9 8 8 8 9 12 14 17 18 20 20 21 24 25 26 24 26 27 27 29 27 24 25 23 26 26 27 25 27 28 25 20 21 25 27 30 30 32 30 29 28 28 27 27 25 25 25 24 24 25
7 7 7 7 9 8 8 9 12 15 19 20 22 23 22 24 23 21 21 22 27 26 27 26 29 26 27 27 27 28 28 29 28 29 25 22 23 27 29 32 32 32 33 32 32 32 32 32 31 30 28 28 28 28
7 7 7 9 9 8 9 13 16 19 20 22 22 25 24 25 28 31 33 30 30 26 26 27 27 22 27 27 27 28 28 29 25 23 21 21 26 27 31 32 31 34 32 34 35 35 35 36 35 34 35 33 32 31
7 8 12 10 9 11 14 18 20 21 24 24 25 26 32 28 28 32 31 28 28 26 27 26 27 27 27 26 28 27 26 25 21 21 20 24 27 29 30 29 29 31 32 34 34 35 36 37 35 35 37 36 35 34
7 12 10 9 10 15 16 20 20 24 23 25 26 31 29 27 26 27 27 27 25 26 23 23 26 23 27 28 27 22 23 20 20 22 21 22 23 26 27 29 31 30 30 29 31 34 34 36 37 36 35 36 37 36
11 11 9 11 14 17 21 22 23 24 24 25 26 29 32 33 32 31 32 29 28 25 24 23 24 26 26 24 21 19 22 23 23 23 22 23 25 27 26 26 27 28 28 29 29 32 34 33 35 33 32 32 36 35
10 11 11 13 14 20 23 24 24 24 25 29 30 31 34 35 36 34 34 33 32 30 29 27 25 25 21 19 20 22 22 22 22 23 24 24 23 25 26 27 26 28 27 29 30 29 28 29 30 29 27 29 30 31
8 11 12 14 16 20 23 25 26 25 26 30 31 33 33 35 36 36 34 33 31 31 31 29 24 19 19 20 22 23 22 23 24 24 22 23 26 27 26 26 24 25 26 27 28 26 27 28 28 27 28 26 28 28
12 13 16 17 21 20 23 26 26 29 32 31 32 32 34 36 36 35 34 32 33 30 28 23 21 21 23 26 27 27 25 24 23 21 21 20 26 25 26 25 26 26 26 26 25 25 25 24 25 26 25 25 27 28
14 13 17 18 21 24 26 28 26 28 28 34 33 35 34 35 34 34 34 34 31 27 25 26 26 26 26 27 27 28 26 26 26 27 26 26 27 25 24 24 26 25 24 23 22 22 22 23 25 25 25 26 25 26
14 16 20 20 22 25 29 28 27 28 26 31 35 34 34 34 36 35 35 31 28 25 28 30 30 32 30 31 31 29 29 29 27 27 26 25 23 24 25 26 25 24 23 22 21 21 23 23 24 25 25 25 25 25
16 19 21 23 22 27 30 28 27 28 28 30 32 33 34 36 37 37 34 29 27 30 32 32 34 32 33 33 31 30 29 29 28 28 27 26 27 27 27 26 26 23 21 21 23 25 25 25 24 25 25 25 25 25
17 20 22 25 28 30 30 29 29 28 27 29 30 31 35 38 34 35 33 28 29 30 31 34 34 32 31 31 30 31 32 29 29 28 28 28 27 27 25 23 22 23 24 24 24 25 25 25 25 25 25 25 25 25
20 20 23 24 30 28 27 27 28 28 28 29 29 35 35 33 34 31 30 29 29 30 31 31 31 33 32 31 29 27 28 27 26 25 27 27 27 24 23 22 22 24 25 25 24 23 24 25 26 26 26 25 23 23
21 23 28 31 27 26 27 27 25 26 28 28 30 32 30 30 30 27 27 28 27 29 29 28 26 27 26 27 28 29 29 30 28 27 29 30 29 29 28 26 25 26 27 26 26 26 26 26 26 26 26 27 26 25
21 25 26 29 28 25 25 26 26 26 24 25 27 29 26 25 23 23 25 28 29 28 29 29 28 27 28 28 29 28 30 31 30 29 30 31 32 33 32 31 28 21 26 26 26 27 27 27 28 29 30 31 31 31
24 27 26 29 27 26 25 24 23 22 22 24 24 23 22 21 22 22 25 27 27 27 26 27 27 30 30 30 30 30 30 29 27 28 29 29 28 28 29 29 28 28 29 29 24 24 27 29 31 32 32 32 32 33
27 26 26 27 25 26 24 23 23 27 27 26 26 24 24 23 24 25 25 26 26 26 27 27 28 28 28 28 27 27 30 31 30 28 27 27 27 30 31 31 31 32 32 33 29 28 20 27 26 31 31 31 31 31
27 26 25 25 25 28 30 30 29 28 28 27 29 26 25 26 25 28 29 29 29 29 29 29 29 29 27 26 26 27 26 31 33 33 33 33 33 32 32 32 32 35 36 34 32 31 30 30 32 32 31 30 29 27
28 25 25 25 29 31 30 28 28 27 28 28 27 29 27 26 24 26 31 31 29 29 28 30 29 28 29 31 32 33 28 31 33 31 30 28 30 31 33 34 36 35 32 30 30 29 30 30 30 30 29 29 29 28
28 27 26 28 30 29 30 28 28 28 28 27 27 27 27 27 25 28 30 32 32 33 33 33 32 33 32 31 32 32 31 32 28 21 22 23 25 28 34 35 34 32 29 29 29 29 28 28 29 29 29 29 29 29

GFSWCAN_con_lsi_165.txt.gz
Lid_Strength_Index
3 3 2 2 2 2 1 1 1 0 -0 -0 0 0 0 0 -0 4 6 6 6 9 9 11 10 11 9 10 13 11 11 11 12 14 18 17 17 15 18 16 16 15 15 15 15 17 18 10 11 12 10 10 11 11
4 4 3 3 2 2 2 2 1 1 1 0 0 -0 1 1 1 1 6 5 5 9 8 8 8 8 9 9 9 10 11 13 10 15 17 18 20 20 19 19 13 16 13 16 14 14 10 10 10 10 10 9 10 11
4 4 4 4 4 3 3 3 2 2 1 2 1 1 1 1 1 2 6 7 8 10 10 13 13 9 8 8 7 13 13 9 10 10 14 16 19 15 21 18 16 14 12 13 13 11 11 10 10 9 9 9 9 10
5 4 4 4 4 4 4 4 3 3 3 2 2 2 1 1 1 3 7 7 7 10 12 13 9 11 9 8 9 8 9 8 8 11 14 17 20 13 17 14 14 14 13 13 12 11 10 9 10 11 12 12 11 11
5 5 5 5 5 5 4 4 4 4 4 3 3 3 3 3 4 6 7 7 8 9 13 11 11 10 11 11 10 9 10 10 10 12 12 13 14 13 16 15 13 12 12 13 13 9 9 9 11 13 13 13 14 14
6 5 5 5 5 5 5 5 5 5 5 4 3 3 3 4 5 5 9 8 9 8 18 16 11 16 19 16 10 10 10 10 10 10 11 10 10 12 15 19 13 12 13 11 10 11 11 13 14 14 14 15 15 15
6 6 6 5 6 6 5 5 5 5 5 5 4 4 3 3 7 9 13 10 8 10 11 18 13 12 20 14 11 10 10 11 11 11 11 11 11 11 12 14 12 15 13 17 18 16 15 16 15 17 17 18 18 18
7 7 6 6 6 6 6 6 6 6 6 6 5 5 4 5 7 10 11 8 9 12 13 19 15 14 18 14 13 12 12 11 12 16 12 13 14 13 15 12 13 14 18 20 20 19 19 19 19 18 18 18 20 19
7 7 7 7 6 6 6 6 6 6 7 6 5 5 9 13 16 17 10 11 13 14 21 25 21 21 18 21 18 14 12 14 17 18 18 19 18 15 14 15 16 18 18 19 20 19 20 20 19 20 22 21 21 20
7 7 6 6 6 7 7 6 6 7 9 8 11 17 21 19 11 11 17 21 21 23 24 22 28 22 20 22 16 22 14 15 22 21 22 24 22 18 17 20 19 18 19 20 20 18 17 18 19 19 20 19 19 20
7 7 6 6 7 8 7 7 8 10 11 19 23 22 17 12 18 24 24 24 27 25 28 29 27 24 22 23 24 22 24 25 25 23 24 29 23 19 24 25 25 23 23 24 24 23 23 23 21 19 19 20 20 21
7 7 7 7 7 8 7 7 8 15 21 20 20 20 22 24 25 25 29 29 28 24 29 27 26 25 27 24 26 26 27 28 27 31 29 28 21 22 27 27 28 28 27 27 28 27 27 25 26 25 22 22 21 21
7 7 7 6 7 8 8 8 9 12 14 20 24 24 24 26 26 27 28 27 28 30 31 31 28 25 27 24 30 29 30 28 31 31 28 24 23 26 26 32 32 36 34 32 32 32 32 32 32 31 28 28 27 27
7 7 7 7 7 8 8 9 12 15 20 22 24 24 24 28 28 27 27 28 29 30 30 28 31 28 29 28 30 29 31 31 33 32 26 24 23 26 30 33 31 32 33 33 33 35 35 35 33 36 35 33 31 30
7 7 7 7 7 8 10 13 15 21 22 23 24 24 26 28 35 37 38 35 33 32 30 28 29 23 28 26 28 29 28 31 28 24 24 22 26 31 32 33 29 34 34 32 35 34 34 36 36 30 33 37 36 36
7 8 12 8 9 11 13 17 23 24 25 24 27 25 33 28 31 37 38 34 34 29 30 29 32 30 28 28 29 27 27 25 20 23 24 27 27 28 28 30 28 30 31 32 32 33 35 35 34 34 35 32 34 36
8 11 9 9 11 14 15 24 24 25 24 26 25 34 31 30 27 32 35 33 31 31 29 31 28 24 28 31 29 24 24 20 21 22 24 25 24 25 26 29 30 29 30 32 33 32 31 34 36 35 33 32 34 36
11 11 8 9 16 19 27 26 26 29 25 25 25 30 35 35 35 36 36 34 31 31 30 28 28 29 28 29 24 20 21 24 25 24 24 24 25 27 26 25 27 27 27 30 30 30 33 31 31 28 30 29 31 36
10 10 8 10 15 22 23 26 25 27 27 28 29 29 34 36 36 35 36 35 36 34 33 33 33 30 27 23 20 23 24 25 23 23 25 25 25 25 26 27 25 27 27 28 29 27 27 27 25 27 27 27 26 29
7 7 9 11 14 19 22 24 29 27 28 29 30 30 31 36 38 40 40 38 35 36 35 33 28 25 22 22 23 23 23 25 25 24 22 24 27 27 26 26 25 27 29 30 29 27 28 27 27 26 24 23 25 25
11 12 13 16 19 20 20 24 28 29 30 31 32 31 33 34 37 39 39 36 35 32 31 28 27 27 27 28 28 28 27 27 24 23 24 23 26 27 28 29 31 30 30 29 28 26 25 24 24 25 24 23 22 22
13 13 17 16 18 21 23 28 27 29 28 30 30 31 33 32 33 38 36 36 33 29 28 28 29 30 29 27 28 31 30 30 31 29 28 28 27 28 30 30 30 30 30 29 27 26 25 25 23 23 23 23 23 24
13 15 19 19 20 22 26 30 29 29 28 30 32 29 29 35 38 35 36 33 30 28 29 30 32 34 31 32 34 33 33 32 30 30 29 29 29 30 30 31 29 28 29 28 28 28 26 23 24 24 24 24 25 25
14 17 19 19 20 25 31 32 30 30 29 29 30 30 30 34 39 38 34 31 28 32 32 32 35 32 34 34 33 34 33 33 33 32 31 30 29 29 31 30 31 29 27 27 25 25 26 26 24 25 24 24 24 24
17 19 20 23 26 30 32 34 32 32 29 28 27 27 32 38 36 38 34 29 31 31 32 35 36 35 33 32 32 31 33 31 30 30 31 32 32 29 28 29 29 27 27 26 25 26 26 26 26 25 25 25 25 25
19 19 22 23 30 29 30 32 31 29 27 28 27 32 33 34 35 31 31 31 31 31 33 31 31 34 31 28 27 27 28 32 30 29 31 33 31 29 29 27 28 28 32 31 29 28 27 26 26 26 26 25 23 24
20 21 24 28 28 30 32 31 29 28 28 26 29 32 30 28 30 29 31 31 29 33 34 32 30 27 26 27 28 30 31 30 29 28 30 32 33 35 31 29 29 30 33 32 31 29 27 27 26 27 27 27 28 27
21 26 26 29 31 28 29 30 29 27 25 25 28 29 27 25 24 27 28 29 32 32 32 31 27 26 26 26 27 29 31 32 30 30 31 30 33 35 35 35 33 23 31 30 29 29 29 29 30 30 30 31 31 32
25 27 25 28 28 26 25 26 25 23 23 25 24 24 23 22 26 27 28 28 28 29 28 26 26 27 28 29 29 30 30 28 27 27 28 29 30 29 34 34 34 34 34 33 24 25 29 30 31 32 33 32 32 35
28 24 27 27 27 27 25 24 23 26 25 23 23 24 24 25 27 26 26 27 27 27 26 25 25 27 27 27 28 28 31 31 30 27 27 28 27 33 34 34 34 35 35 34 29 27 20 27 26 31 31 31 31 31
25 24 25 24 25 30 30 29 28 27 26 27 28 24 24 26 28 29 30 31 30 28 28 27 28 29 27 27 27 27 26 31 32 33 33 33 33 35 34 33 34 37 37 34 32 31 30 31 32 32 31 30 31 30
26 24 24 27 30 32 30 27 27 26 28 26 27 27 27 26 25 29 32 31 28 28 29 29 29 29 30 31 31 31 28 30 30 31 31 31 34 35 34 34 37 36 33 31 31 30 30 31 30 30 30 30 31 31
27 26 27 29 31 30 30 27 26 28 27 27 28 27 27 26 26 29 31 31 32 32 32 32 32 32 32 31 31 31 30 32 30 23 25 26 27 29 35 36 35 33 31 30 30 29 29 29 29 30 30 30 30 30

GFSWCAN_con_lsi_168.txt.gz
Lid_Strength_Index
4 4 3 3 2 2 2 2 1 1 0 0 0 0 0 1 1 4 7 6 7 9 9 11 11 9 8 9 13 9 9 10 11 13 17 16 16 16 17 17 17 14 15 15 15 17 18 11 11 13 11 10 10 11
4 4 4 4 3 3 3 2 2 2 2 1 1 1 1 1 1 2 8 7 6 9 10 8 9 8 9 9 9 9 10 11 10 13 14 15 16 18 18 19 14 17 13 16 13 14 11 11 10 11 10 10 10 11
5 5 4 4 4 4 3 3 3 3 2 2 2 2 1 1 1 3 8 8 9 12 12 14 12 9 7 8 8 13 13 9 11 10 15 17 19 15 20 19 17 14 12 14 13 13 11 11 11 11 10 9 9 9
6 5 5 5 5 5 4 4 4 4 3 3 2 2 2 2 2 4 7 6 7 9 13 15 8 10 9 9 9 8 9 7 8 12 14 17 20 13 17 14 15 14 13 14 14 12 12 12 12 11 11 12 12 12
6 5 5 5 5 5 5 5 5 5 4 4 4 3 3 3 4 7 7 7 8 13 19 18 11 10 11 11 10 9 10 10 10 12 13 14 15 15 16 15 13 13 12 14 14 12 12 11 11 13 13 13 14 14
6 6 6 5 6 6 5 5 5 5 5 5 4 3 3 4 4 6 12 8 9 11 18 20 14 18 20 17 12 10 10 10 10 11 11 11 11 12 18 18 15 11 11 10 11 9 12 11 14 15 15 16 16 16
7 7 6 6 6 6 6 5 5 5 5 6 5 4 4 3 6 11 14 10 8 10 14 20 15 13 21 13 11 10 10 11 11 11 11 12 10 11 14 18 14 15 15 14 17 15 15 17 16 19 19 20 20 21
7 7 6 6 6 6 7 6 6 5 6 6 5 5 4 5 7 11 12 8 10 12 13 24 19 14 18 13 13 12 12 11 12 13 13 13 12 12 15 13 14 16 17 18 19 19 18 19 19 19 19 20 21 20
7 7 6 6 6 6 7 6 6 6 7 7 6 6 9 14 18 17 10 11 14 16 23 27 21 22 19 22 16 13 13 15 19 20 19 18 19 17 15 16 16 17 17 18 21 21 21 21 21 21 21 22 22 21
7 7 7 6 6 7 7 7 7 8 9 8 11 18 23 21 11 12 19 23 22 25 25 23 26 23 20 23 18 17 15 17 18 22 23 25 22 18 16 19 20 20 20 21 21 20 24 24 24 24 23 23 23 22
7 7 7 7 6 7 8 7 7 10 12 18 22 22 18 13 19 26 26 25 28 25 30 29 28 23 22 23 25 21 19 21 25 24 25 30 25 21 24 26 27 25 25 26 26 27 27 26 27 28 26 26 25 25
7 7 7 7 7 7 8 7 8 15 18 18 18 19 21 24 26 25 29 31 30 25 30 27 26 25 26 24 26 28 29 28 28 33 30 29 21 22 27 27 28 31 30 29 30 28 28 26 29 29 28 28 28 28
7 7 7 7 7 7 8 7 9 12 14 19 22 22 22 24 25 25 27 26 28 32 31 31 27 26 26 24 30 30 29 28 33 33 27 23 23 25 27 32 32 36 36 34 33 34 34 32 35 33 31 31 32 31
7 7 7 7 7 7 8 9 12 15 21 23 23 23 21 25 25 25 24 24 27 29 32 30 32 29 30 27 29 29 31 32 34 33 26 24 25 26 32 36 33 31 31 32 32 35 34 35 35 37 37 36 33 31
7 7 7 7 7 7 10 12 14 23 24 24 25 25 26 26 32 35 38 32 31 31 29 29 30 24 32 30 29 31 31 32 29 25 24 24 27 31 33 36 31 33 34 33 37 36 33 35 36 35 34 35 36 34
7 7 10 7 7 9 11 17 24 27 28 26 27 25 32 29 32 37 39 35 35 30 32 30 35 32 31 31 31 30 30 28 23 24 24 29 30 32 31 31 29 31 33 33 35 36 35 36 34 32 36 34 33 32
7 11 8 8 10 12 14 24 25 28 26 28 26 36 29 29 26 31 31 31 31 30 29 33 30 25 30 35 33 30 28 23 23 25 29 29 27 26 27 29 33 33 34 36 37 37 36 38 39 36 31 29 31 29
11 11 7 9 15 19 26 27 26 28 26 25 25 28 34 34 31 32 33 33 29 30 31 28 28 30 28 30 29 26 25 26 29 26 26 27 27 27 28 25 30 28 28 32 34 36 37 37 36 31 33 32 31 31
10 10 7 8 13 20 21 24 25 25 25 28 28 29 35 36 35 33 36 36 37 36 31 34 34 30 27 27 26 28 29 28 25 25 25 26 28 27 27 29 30 30 29 29 32 31 31 31 30 31 31 32 30 29
7 7 7 8 11 19 21 22 28 27 27 27 29 29 29 32 33 34 37 37 36 36 33 32 28 26 26 26 25 26 28 29 28 27 25 25 29 30 30 29 29 31 31 32 34 32 33 32 32 30 30 28 29 26
8 10 9 13 16 16 18 22 28 28 31 30 31 29 31 33 32 35 36 35 35 32 30 27 27 30 30 30 32 31 29 29 27 26 25 25 28 30 29 30 30 31 31 33 32 29 29 29 28 29 29 27 25 24
13 11 16 15 16 20 21 26 26 30 30 33 31 32 37 37 36 38 35 37 32 29 28 29 30 31 30 28 29 32 31 32 34 32 31 31 29 29 30 31 31 32 32 31 31 29 29 28 28 28 28 25 24 24
13 14 17 17 17 20 23 30 29 31 28 32 32 31 34 35 35 33 36 33 31 29 31 31 31 33 31 34 35 34 35 33 33 34 33 32 32 31 32 33 32 31 33 31 32 30 29 27 28 25 24 24 25 25
12 16 17 18 18 23 29 33 30 33 32 32 30 30 32 34 36 37 34 32 28 35 35 33 35 32 33 34 33 34 34 36 35 35 34 31 31 31 35 34 36 35 32 31 31 30 29 29 27 28 27 25 25 25
16 18 17 20 25 29 30 33 33 35 31 31 30 30 35 35 31 32 32 29 33 34 34 38 36 31 29 33 34 34 36 34 32 31 32 32 34 33 33 35 34 33 34 31 31 31 32 33 32 31 30 28 27 25
18 18 20 22 28 28 29 32 32 32 31 31 29 36 34 30 30 26 28 30 32 32 32 30 30 34 34 31 31 31 32 34 31 28 30 32 31 31 31 29 29 29 34 34 32 32 33 32 32 31 30 30 27 28
19 18 21 27 27 29 33 33 31 29 30 29 33 33 30 28 27 24 27 33 31 33 33 32 30 29 30 32 33 34 35 33 30 29 31 33 34 33 30 29 30 30 35 35 35 34 33 33 32 31 31 32 33 32
17 23 25 28 30 30 30 31 30 29 28 28 28 30 27 24 22 23 27 30 33 34 35 35 33 31 29 29 29 32 32 31 31 32 32 32 34 33 35 35 33 26 35 36 34 33 34 32 32 32 32 32 32 34
23 26 25 30 31 29 28 28 27 26 25 25 24 25 24 22 26 27 30 31 32 29 29 30 30 29 28 29 29 30 29 29 27 28 28 27 29 28 33 34 36 37 38 36 27 27 31 32 33 33 33 32 32 35
27 22 26 26 27 27 26 26 25 24 25 23 22 24 25 27 29 28 28 28 28 28 28 27 26 26 26 26 27 28 30 30 29 26 25 26 25 30 31 34 35 38 38 36 30 28 21 28 27 31 31 31 32 31
25 25 25 24 25 30 29 28 27 26 26 27 26 23 26 29 29 30 31 31 30 29 28 27 26 26 25 25 26 26 27 30 31 31 32 32 31 32 33 32 34 38 38 35 32 32 31 31 33 33 32 31 31 31
24 23 24 28 30 31 29 26 26 27 27 26 27 26 26 25 27 30 32 32 29 28 28 28 27 28 29 28 29 29 27 27 28 29 29 29 31 32 32 33 38 38 34 31 31 31 31 32 31 31 31 31 31 31
25 25 27 29 30 29 29 26 27 28 27 27 28 27 26 25 27 30 31 31 31 31 31 31 31 31 31 30 29 29 29 29 29 23 25 26 28 29 33 37 37 34 30 30 30 30 30 30 30 31 30 31 31 31

GFSWCAN_con_lsi_171.txt.gz
Lid_Strength_Index
4 4 4 3 3 3 3 2 2 2 1 1 1 1 1 1 1 5 8 6 8 9 11 9 9 9 8 10 14 9 9 9 9 12 13 17 15 16 19 17 15 14 15 16 15 17 18 11 12 13 11 11 11 11
5 4 4 4 4 3 3 3 3 3 2 2 2 2 1 1 1 3 8 7 7 9 11 8 9 8 8 8 8 8 8 10 8 11 15 14 18 19 20 21 15 17 12 14 13 14 12 12 12 11 11 10 11 11
5 5 5 4 5 5 4 4 4 4 3 3 2 2 2 1 1 3 7 8 7 10 10 11 10 8 7 8 8 11 12 8 9 9 12 14 18 16 21 18 16 14 13 14 13 13 11 11 12 11 10 10 11 11
6 6 5 5 5 5 5 5 5 4 4 4 3 3 3 3 2 4 6 6 7 10 13 13 8 9 8 10 8 8 9 8 9 11 13 15 20 13 16 14 16 15 13 14 14 11 12 12 12 12 12 12 12 13
6 6 6 6 5 5 5 5 5 5 5 5 4 4 3 3 4 6 7 7 8 13 19 17 10 10 12 11 11 9 9 9 10 12 13 13 15 15 17 15 16 13 13 15 14 12 12 12 12 12 13 13 14 15
7 7 6 6 6 5 6 6 5 5 5 5 5 5 3 4 4 8 14 8 10 13 18 21 12 12 16 16 10 10 10 10 10 11 11 11 10 13 19 17 14 13 12 10 11 12 12 13 14 16 15 16 16 16
7 7 7 6 6 6 6 6 5 5 5 6 6 5 4 4 9 13 15 11 9 11 19 22 18 13 14 13 11 10 10 11 11 11 12 11 11 11 13 17 15 14 16 16 17 15 13 16 16 19 19 20 20 21
7 7 6 6 6 6 7 7 6 6 7 7 6 5 5 6 8 12 12 9 11 14 17 20 21 15 16 14 14 12 12 12 12 13 13 14 14 13 16 14 15 16 16 18 19 19 18 20 20 20 20 21 22 21
7 7 6 6 6 6 7 7 7 7 8 7 6 7 10 16 19 19 10 12 15 17 24 21 20 21 19 17 15 14 13 15 20 21 20 19 24 16 15 16 17 17 17 17 21 23 23 22 22 23 23 24 24 22
8 8 7 7 6 6 7 7 7 9 9 9 12 18 21 21 12 13 20 23 22 26 26 23 27 24 21 22 17 17 18 19 24 24 23 25 23 19 16 18 21 20 19 22 21 20 26 26 26 25 25 25 25 25
8 7 7 7 7 7 7 7 7 11 13 20 24 24 19 14 19 26 27 26 30 27 31 31 29 25 24 23 25 21 23 23 24 25 26 30 26 21 24 27 28 27 25 25 27 27 28 26 27 28 27 29 30 29
7 7 7 7 7 7 6 8 9 16 20 19 20 20 23 26 27 25 29 31 31 26 31 28 27 27 28 25 26 28 29 26 25 33 28 29 22 22 26 25 28 32 31 30 32 28 28 27 29 30 30 31 31 32
7 7 7 7 7 7 7 8 10 11 15 22 25 25 24 27 27 27 29 28 29 32 31 32 29 28 29 26 31 30 30 29 34 33 29 24 23 25 26 31 31 36 38 36 34 36 35 34 36 35 32 33 35 34
7 7 7 7 7 7 7 9 10 14 21 24 26 25 24 28 28 26 26 25 27 29 31 30 33 29 33 29 33 30 33 34 34 34 27 24 25 26 32 36 33 30 31 31 30 35 35 35 34 37 37 37 38 33
7 7 7 8 7 7 8 10 13 22 25 24 25 25 27 28 35 37 41 34 32 32 29 29 30 25 33 31 32 33 33 33 30 26 25 24 27 32 32 36 30 30 34 33 37 36 32 35 36 34 36 38 40 39
7 7 9 7 7 8 11 17 23 26 28 26 29 26 33 28 30 36 39 34 34 29 32 29 34 31 30 31 31 30 31 29 24 27 25 31 30 32 32 32 29 31 32 32 36 37 36 37 35 33 40 40 37 36
7 11 8 7 7 10 13 23 25 27 24 28 25 37 30 31 26 31 32 31 30 28 27 29 28 24 31 35 33 31 28 24 25 26 30 30 28 29 29 32 33 32 32 34 38 37 37 41 42 39 35 33 37 35
10 10 7 9 15 16 24 25 26 28 25 25 24 28 35 35 33 35 36 34 28 28 29 26 26 30 29 30 29 26 26 28 30 28 29 31 30 31 32 28 29 30 32 35 35 37 40 40 38 32 36 37 37 37
10 9 7 9 12 16 19 23 25 25 24 29 30 32 34 35 37 36 37 36 34 33 29 33 31 30 27 26 25 28 30 29 25 27 30 32 32 31 30 32 33 34 34 36 37 34 34 34 33 35 35 35 33 34
7 7 7 8 10 16 19 24 30 29 28 28 30 31 32 32 33 35 39 37 33 34 34 32 28 25 24 26 26 27 27 30 29 28 27 28 32 33 33 33 32 33 34 37 37 36 37 35 36 33 33 33 33 29
7 9 7 10 14 15 18 24 29 28 32 31 31 29 32 33 32 33 37 37 35 31 30 27 25 27 32 33 34 33 31 29 27 25 26 28 31 33 33 34 34 34 29 30 31 35 33 33 33 35 34 31 31 29
11 8 15 13 15 16 19 22 26 31 31 35 33 32 34 34 33 34 35 36 32 27 26 28 30 30 30 30 29 32 32 34 36 34 32 32 30 31 33 34 34 31 33 32 35 34 34 34 33 33 33 31 29 29
11 12 16 15 15 17 23 28 25 31 29 34 35 33 33 37 35 33 35 33 30 27 26 28 32 35 32 36 38 37 36 34 32 33 35 35 37 38 35 33 33 31 32 31 35 35 33 30 31 31 31 31 32 32
12 15 17 17 15 22 28 31 29 30 32 34 33 32 33 37 36 36 34 32 29 28 29 29 31 32 33 34 31 30 32 34 35 36 38 35 34 33 36 34 36 35 33 32 34 33 33 33 31 32 33 33 34 33
16 17 16 18 22 29 30 32 33 33 32 32 32 34 36 38 35 35 34 30 28 27 26 30 30 27 27 30 33 34 36 32 31 31 34 35 35 35 33 34 33 34 33 31 31 32 33 35 35 35 35 35 34 34
19 18 18 18 25 27 29 33 34 32 33 33 30 36 38 34 33 29 28 27 27 26 30 29 28 31 34 31 31 33 30 34 33 31 33 35 33 29 28 29 29 29 35 34 31 32 33 34 35 35 35 35 33 34
18 19 19 25 25 28 33 35 33 31 32 30 36 36 32 30 28 26 27 27 25 28 31 31 27 28 29 30 34 36 36 35 34 32 34 35 35 34 30 28 28 28 34 34 32 31 31 34 35 36 36 37 38 36
16 20 24 28 28 28 29 29 29 30 28 29 30 32 29 26 23 25 26 29 30 32 32 32 33 33 32 31 31 33 34 35 33 33 32 33 34 34 33 33 30 26 32 32 31 31 34 34 35 36 36 34 34 36
21 22 24 28 29 27 26 27 27 26 26 26 25 26 25 25 28 27 28 29 30 29 29 30 32 31 30 30 29 30 30 30 27 27 27 28 29 29 32 32 32 32 33 32 25 29 32 34 35 35 36 34 34 37
24 21 23 25 26 25 24 24 24 24 24 23 23 25 27 29 30 29 28 27 27 28 28 29 29 28 28 27 28 29 29 28 27 25 24 24 24 27 29 30 31 32 33 30 29 28 23 31 30 35 34 33 33 33
22 22 23 24 25 31 29 27 25 25 25 25 24 24 28 30 30 31 31 31 29 28 27 27 26 26 25 25 25 25 25 27 28 27 28 28 28 28 29 30 31 32 32 31 33 33 33 34 36 35 34 32 33 32
21 21 23 27 29 29 27 25 25 26 25 25 27 26 26 25 29 30 32 31 28 27 28 27 26 26 27 27 26 26 27 27 27 28 27 27 28 29 30 31 33 32 31 32 33 33 34 34 34 33 32 32 32 32
23 24 25 26 27 27 26 24 25 26 26 27 28 27 27 25 29 30 30 30 31 32 31 30 30 30 30 29 28 28 28 27 27 23 24 25 27 28 31 32 32 31 31 31 32 32 32 32 31 32 32 32 31 31